YUNYAO-1 48

导读 | 星芒AI

YUNYAO-1 48 是中国“云遥”星座计划中的一颗遥感卫星,主要用于气象观测和环境监测。该卫星具备高分辨率成像能力,能够提供精准的气象数据,支持天气预报、灾害预警和气候变化研究。作为星座系统的一部分,YUNYAO-1 48 与其他卫星协同工作,提升数据获取的时效性和覆盖范围,增强对地球环境的动态监测能力。

基本信息
目录编号:
63349
目录名称:
YUNYAO-1 48
国际标识:
2025-059F
轨道中心:
EARTH
卫星名称:
YUNYAO-1 48
卫星全名:
YUNYAO-1 48
卫星状态:
在轨 (已飞行222 天)
发射日期:
2025-03-21 UTC
国别 :
中国 (CN)
星等 :
--
轨道信息
数据来源 国际轨道数据
星历时间: 2025-10-28T23:43:05+0800
15小时前
查看轨道信息
半长轴: 6916.943km
偏心率: 0.0015148
轨道倾角: 97.603°
近地点辐角 231.451°
升交点赤经 119.737°
平近点角 128.536°
近地点: 528.33km
远地点: 549.286km
周期: 95.418分钟
每日圈数: 15.091469
详细信息
使用方式:
暂无
2D轨道图
3D轨道图
轨道高度分析图
轨道倾角分析图
轨道综合分析图
查看轨道综合分析图